Trinidad, Colorado, United States (81082)
Lat: 37.17N, Lon: 104.5W
Wx Zone: COZ088
Local Info
Past Weather Observations for Friday, July 25, 2014

NOTE: This archive is for the closest National Weather Service station to Trinidad. Information may differ from the station used for current weather conditions.

Click here for Long-term Archive

Time Weather Temperature Dewpoint Humidity Pressure Winds Precip Visibility
23:54
Clear
73°F / 23°C 46°F / 8°C 38% 30.18 in
(1022 mb)
S 9.2 mph
(S 15 kph)
- 10SM
22:54
Clear
75°F / 24°C 46°F / 8°C 36% 30.18 in
(1022 mb)
SSE 4.6 mph
(SSE 7 kph)
- 10SM
21:54
Partly Cloudy
81°F / 27°C 45°F / 7°C 28% 30.15 in
(1021 mb)
ENE 6.9 mph
(ENE 11 kph)
- 10SM
20:54
Clear
82°F / 28°C 43°F / 6°C 25% 30.12 in
(1020 mb)
SSE 5.8 mph
(SSE 9 kph)
- 10SM
19:54
Clear
86°F / 30°C 43°F / 6°C 22% 30.09 in
(1019 mb)
SSE 15 mph
(SSE 24 kph)
- 10SM
18:54
Clear
88°F / 31°C 43°F / 6°C 21% 30.06 in
(1018 mb)
SSE 16.1 mph
(SSE 26 kph)
- 10SM
17:54
Clear
91°F / 33°C 37°F / 3°C 15% 30.04 in
(1017 mb)
S 21.9 mph
(S 35 kph)
- 10SM
16:54
Clear
93°F / 34°C 39°F / 4°C 15% 30.04 in
(1017 mb)
S 27.6 mph
(S 44 kph)
- 10SM
15:54
Clear
97°F / 36°C 39°F / 4°C 13% 30.06 in
(1018 mb)
S 18.4 mph
(S 30 kph)
- 10SM
14:54
Partly Cloudy
97°F / 36°C 43°F / 6°C 16% 30.09 in
(1019 mb)
SSE 15 mph
(SSE 24 kph)
- 10SM
13:54
Clear
93°F / 34°C 41°F / 5°C 16% 30.12 in
(1020 mb)
Variable 4.6 mph
(Variable 7 kph)
- 10SM
12:54
Clear
93°F / 34°C 43°F / 6°C 17% 30.15 in
(1021 mb)
S 8.1 mph
(S 13 kph)
- 10SM
11:54
Clear
91°F / 33°C 39°F / 4°C 16% 30.18 in
(1022 mb)
NE 8.1 mph
(NE 13 kph)
- 10SM
10:54
Clear
91°F / 33°C 43°F / 6°C 18% 30.21 in
(1023 mb)
Variable 5.8 mph
(Variable 9 kph)
- 10SM
09:54
Clear
88°F / 31°C 43°F / 6°C 21% 30.24 in
(1024 mb)
W 5.8 mph
(W 9 kph)
- 10SM
08:54
Clear
84°F / 29°C 46°F / 8°C 27% 30.24 in
(1024 mb)
SSW 16.1 mph
(SSW 26 kph)
- 10SM
07:54
Clear
82°F / 28°C 48°F / 9°C 30% 30.24 in
(1024 mb)
SSW 16.1 mph
(SSW 26 kph)
- 10SM
06:54
Clear
73°F / 23°C 52°F / 11°C 47% 30.24 in
(1024 mb)
W 8.1 mph
(W 13 kph)
- 10SM
05:54
Clear
68°F / 20°C 50°F / 10°C 53% 30.27 in
(1025 mb)
SSW 11.5 mph
(SSW 19 kph)
- 10SM
04:54
Clear
70°F / 21°C 48°F / 9°C 46% 30.27 in
(1025 mb)
SSW 15 mph
(SSW 24 kph)
- 10SM
03:54
Clear
70°F / 21°C 50°F / 10°C 50% 30.27 in
(1025 mb)
SSW 12.7 mph
(SSW 20 kph)
- 10SM
02:54
Clear
70°F / 21°C 50°F / 10°C 50% 30.27 in
(1025 mb)
SW 11.5 mph
(SW 19 kph)
- 10SM
01:54
Clear
70°F / 21°C 50°F / 10°C 50% 30.27 in
(1025 mb)
SSW 16.1 mph
(SSW 26 kph)
- 10SM
00:54
Clear
68°F / 20°C 50°F / 10°C 53% 30.3 in
(1026 mb)
SW 6.9 mph
(SW 11 kph)
- 10SM
Time Weather Temperature Dewpoint Humidity Pressure Winds Precip Visibility


Weather for websites

WeatherForYou.com, LLC is not responsible for any damages or problems caused by this service. Current weather conditions are obtained from the closest station including government and personal stations which may have varying degrees of accuracy. Weather forecasts are derived from the NOAA NDFD. Like all things, this site belongs to Jesus Christ... He just trusts me to maintain it. If you have any questions or comments email webmaster@weatherforyou.com

Copyright © 2014, WeatherForYou.com LLC. All rights reserved.